Location: Dürabuch
(48.2640°N, 11.2185°E)
Time: 02:31:34
(UTC+00:00)

Cosmos 2333 Rocket - Pass Details

Date: 23 May 2024
Orbit: 839 x 863 km, 70.8° (Epoch: 13 June)

Event Time Altitude Azimuth Distance (km) Brightness Sun altitude
Rises 00:46:26 0° 334° (NNW) 3,424 6.0 -17.9°
Reaches altitude 10° 00:49:02 10° 342° (NNW) 2,488 5.3 -17.7°
Maximum altitude 00:54:27 42° 53° (NE) 1,211 3.5 -17.4°
Drops below altitude 10° 00:59:51 10° 123° (ESE) 2,490 4.6 -17.0°
Sets 01:02:27 0° 130° (SE) 3,426 5.2 -16.8°
